{"data":{"norad_id":63137,"epoch":"2026-09-21T09:14:34.128672Z","epoch_age_seconds":85720,"freshness":"FRESH","line1":"1 63137U 25043F   26264.38511723  .00205419  00000+0  15589-2 0  9994","line2":"2 63137  42.9991 150.7991 0001013   0.0248   0.0620 15.70935834 90256","mean_motion":15.70935834,"eccentricity":0.0001013,"inclination_deg":42.9991,"raan_deg":150.7991,"arg_perigee_deg":0.0248,"mean_anomaly_deg":0.062,"bstar":0.0015589,"rev_number":9025,"period_min":91.665106163719,"perigee_km":355.53897350385,"apogee_km":356.90335446787,"semimajor_km":6734.3581639859,"source":"CELESTRAK","updated_at":"2026-09-22T09:00:49.790904Z"}}